Regional Weather Roundup
Issued by NWS

Home | Current Version | Previous Version | Graphics & Text | Print | Product List | Glossary On
Versions: 1 2 3 4 5 6 7 8 9 10 11 12 13 14 15 16 17 18 19 20 21 22 23 24 25 26 27 28 29 30 31 32 33 34 35 36 37 38 39 40 41 42 43 44 45 46 47 48 49 50
856
ASUS43 KLMK 182210
RWRKY
KENTUCKY REGIONAL WEATHER ROUNDUP
NATIONAL WEATHER SERVICE LOUISVILLE KY
500 PM EST THU JAN 18 2018

NOTE "FAIR" INDICATES FEW OR NO CLOUDS BELOW 12,000 FEET
WITH NO SIGNIFICANT WEATHER AND/OR OBSTRUCTIONS TO VISIBILITY.

KYZ001>023-026-027-061>063-070>075-182300-
WESTERN AND SOUTH CENTRAL KENTUCKY

CITY           SKY/WX    TMP DP  RH WIND       PRES   REMARKS
PADUCAH        FAIR      30  13  49 SW8       30.35F WCI  22
HENDERSON      FAIR      31  16  54 S9        30.33F WCI  23
OWENSBORO      FAIR      30  17  58 S13       30.33F WCI  20
HOPKINSVILLE   FAIR      30  13  50 SW9       30.37S WCI  21
BOWLING GREEN  FAIR      30  14  51 SW6       30.39S WCI  24
GLASGOW        FAIR      31  13  47 SW6       30.37F WCI  25
$$

KYZ024-025-028>034-038-045-046-053-182300-
NORTH CENTRAL KENTUCKY

CITY           SKY/WX    TMP DP  RH WIND       PRES   REMARKS
LOUISVILLE/SDF FAIR      32  13  45 SW14G22   30.31F WCI  22
LOUISVILLE/LOU FAIR      32  13  45 SW13      30.31F WCI  22
FORT KNOX      CLEAR     30  12  47 SW10      30.34S WCI  21
$$

KYZ035>037-039>044-047>052-055>060-089>105-182300-
NORTHEAST KENTUCKY

CITY           SKY/WX    TMP DP  RH WIND       PRES   REMARKS
LEXINGTON      FAIR      27  11  51 SW15      30.30S WCI  15
COVINGTON      FAIR      30  15  53 SW8       30.23R WCI  22
FRANKFORT      FAIR      28  12  51 SW12      30.29F WCI  18
$$

KYZ054-064>069-076>088-106>120-182300-
SOUTHEAST KENTUCKY

CITY           SKY/WX    TMP DP  RH WIND       PRES   REMARKS
JACKSON        FAIR      29  12  49 VRB5      30.29S WCI  24
LONDON         FAIR      31  12  45 SW6       30.32F WCI  25
SOMERSET       FAIR      30  12  47 W9        30.37F WCI  22
MIDDLESBORO    FAIR      31  15  52 S5        30.35F WCI  26
MONTICELLO     FAIR      30  16  56 W15       30.38F WCI  19
$$





USA.gov is the U.S. government's official web portal to all federal, state and local government web resources and services.